Location: Harwich
(41.7160°N, 69.9939°W)
Time: 10:40:37
(UTC+02:00)

A-11 Canister half - Pass Details

Date: 25 February 2024
Orbit: 1513 x 1686 km, 47.2° (Epoch: 24 April)

Event Time Altitude Azimuth Distance (km) Brightness Sun altitude
Exits shadow 07:36:28 35° 72° (ENE) 2,454 10.2 -50.4°
Drops below altitude 10° 07:41:30 10° 65° (ENE) 3,890 11.5 -49.7°
Sets 07:44:36 0° 64° (ENE) 4,858 12.2 -49.3°
